OneWeb SL0325

operational
NORAD ID: 49194 Int'l Des: 2021-083 Owner: ONEWEBN Country: UK Constellation: oneweb
LEOCIRCULARPOLARONEWEB_TYPE

关于 OneWeb SL0325

正在加载描述...

实时位置

正在加载3D地球...

即将过境

高度历史

Altitude vs Time

uPlot chart will show altitude changes over time

两行轨道根数

1 49194U 21083J 25303.23327397 .00000020 00000-0 18840-4 0 9997
2 49194 87.9231 21.1363 0001842 102.8756 257.2583 13.18686975199701
Epoch: Oct 30, 2025 • Age: 9 hours

当前状态

高度 1217.1 km
速度 7.24 km/s
星下点 -69.66°S, 44.67°W
发射日期 Sep 14, 2021
运行时间 4.1 years
类型 internet

技术详情

分类 Payload
质量 148.00 kg
干质量 140.00 kg
总质量 148.00 kg
长度 1.30 m
直径 1.00 m
跨度 5.00 m
形状 Trapezoid+2 pan
制造商 ONEWUS
平台类型 ARROW
阶段状态 In Orbit
所有者/国家 ONEWEBN/UK

大型星座

Loading constellations...